Location: Mercogliano
(40.9167°N, 14.7333°E)
Time: 08:16:54
(UTC+00:00)

Cosmos 2150 Rocket - Pass Details

Date: 18 January 2021
Orbit: 748 x 808 km, 74.0° (Epoch: 04 March)

Event Time Altitude Azimuth Distance (km) Brightness Sun altitude
Rises 04:30:47 0° 357° (N) 3,256 7.1 -20.8°
Reaches altitude 10° 04:34:29 10° 24° (NNE) 2,338 6.7 -20.1°
Maximum altitude 04:37:06 14° 53° (NE) 2,098 6.8 -19.6°
Drops below altitude 10° 04:39:44 10° 83° (E) 2,352 7.6 -19.1°
Sets 04:43:27 0° 109° (ESE) 3,289 8.9 -18.4°
